CW5218 Weather Reports


time (UTC)temp
C
wind
direction
speed
KPH
gust
KPH
rain 1hr
cm
rain 24hr
cm
rain mn
cm
humidity
%
barometer
mb
20260505124530 12 0 0.0 3.2 0.00 0.00 0.00 87 1013.1
20260505123036 12 0 0.0 1.6 0.00 0.00 0.00 87 1012.9
20260505121530 11 0 0.0 1.6 0.00 0.00 0.00 87 1012.9
20260505120030 11 0 0.0 3.2 0.00 0.00 0.00 88 1012.8
20260505114532 11 0 0.0 1.6 0.00 0.00 0.00 89 1012.7
20260505113034 11 0 0.0 1.6 0.00 0.00 0.00 89 1012.7
20260505111533 11 0 0.0 3.2 0.00 0.00 0.00 90 1012.7
20260505110105 11 28 0.0 1.6 0.00 0.00 0.00 90 1012.6
20260505101549 10 0 0.0 1.6 0.00 0.00 0.00 90 1012.4
20260505100053 10 0 0.0 1.6 0.00 0.00 0.00 90 1012.4
20260505094533 10 0 0.0 1.6 0.00 0.00 0.00 90 1012.4
20260505093031 10 0 0.0 1.6 0.00 0.00 0.00 90 1012.2
20260505091530 10 0 0.0 1.6 0.00 0.00 0.00 90 1012.2
20260505090029 10 89 0.0 3.2 0.00 0.00 0.00 89 1012.0
20260505084531 10 0 0.0 1.6 0.00 0.00 0.00 89 1012.0
20260505083031 10 0 0.0 1.6 0.00 0.00 0.00 89 1011.9
20260505081535 10 0 0.0 1.6 0.00 0.00 0.00 88 1012.0
20260505080029 10 0 0.0 1.6 0.00 0.00 0.00 87 1012.1
20260505074529 10 0 0.0 1.6 0.00 0.00 0.00 87 1011.9
20260505073036 10 63 0.0 1.6 0.00 0.00 0.00 86 1011.9
20260505071531 10 89 0.0 3.2 0.00 0.00 0.00 86 1011.6
20260505070034 10 0 0.0 1.6 0.00 0.00 0.00 84 1011.4
20260505064532 11 0 0.0 1.6 0.00 0.00 0.00 84 1011.2
20260505063038 11 0 0.0 1.6 0.00 0.00 0.00 83 1011.2
20260505061538 11 0 0.0 1.6 0.00 0.00 0.00 82 1010.8
20260505060031 11 0 0.0 1.6 0.00 0.00 0.00 82 1010.7
20260505054543 12 0 0.0 1.6 0.00 0.00 0.00 80 1010.7
20260505053039 12 0 0.0 1.6 0.00 0.00 0.00 79 1010.6
20260505051539 12 0 0.0 1.6 0.00 0.00 0.00 77 1010.6
20260505041530 14 0 0.0 1.6 0.00 0.00 0.00 71 1010.1
20260505040031 15 0 0.0 3.2 0.00 0.00 0.00 69 1009.8
20260505034529 16 0 0.0 3.2 0.00 0.00 0.00 66 1009.6
20260505033028 16 135 0.0 3.2 0.00 0.00 0.00 65 1009.4
20260505031538 17 0 0.0 6.4 0.00 0.00 0.00 63 1009.1
20260505030030 18 253 0.0 8.0 0.00 0.00 0.00 60 1009.2
20260505024532 18 1 1.6 6.4 0.00 0.00 0.00 58 1008.9
20260505023033 19 286 0.0 4.8 0.00 0.00 0.00 55 1008.8
20260505021535 20 231 1.6 8.0 0.00 0.00 0.00 50 1008.9
20260505020037 21 269 1.6 11.3 0.00 0.00 0.00 46 1008.6
20260505014530 22 1 1.6 9.7 0.00 0.00 0.00 45 1008.6
20260505013031 22 216 3.2 9.7 0.00 0.00 0.00 45 1008.7
20260505011536 22 161 3.2 11.3 0.00 0.00 0.00 45 1008.6
20260505010048 23 257 3.2 9.7 0.00 0.00 0.00 43 1008.6
20260505004530 23 243 3.2 11.3 0.00 0.00 0.00 43 1008.5
20260505003037 25 199 1.6 11.3 0.00 0.00 0.00 42 1008.5
20260505001530 25 223 3.2 11.3 0.00 0.00 0.00 41 1008.2
20260505000041 25 279 3.2 12.9 0.00 0.00 0.00 40 1008.2
20260504234530 26 319 1.6 6.4 0.00 0.00 0.00 38 1008.3
20260504233033 26 135 1.6 8.0 0.00 0.00 0.00 41 1008.4
20260504231532 25 178 1.6 9.7 0.00 0.00 0.00 41 1008.4
20260504230040 25 178 1.6 4.8 0.00 0.00 0.00 42 1008.5
20260504224529 25 145 1.6 8.0 0.00 0.00 0.00 41 1008.6
20260504223031 25 264 4.8 11.3 0.00 0.00 0.00 41 1008.7
20260504221542 25 89 4.8 12.9 0.00 0.00 0.00 45 1008.8
20260504220035 25 279 1.6 12.9 0.00 0.00 0.00 44 1009.0
20260504214530 25 59 3.2 14.5 0.00 0.00 0.00 44 1009.1
20260504213046 25 152 1.6 12.9 0.00 0.00 0.00 46 1009.2
20260504211534 25 161 1.6 6.4 0.00 0.00 0.00 41 1009.5
20260504210034 24 1 1.6 11.3 0.00 0.00 0.00 44 1009.6
20260504204532 23 152 3.2 16.1 0.00 0.00 0.00 47 1009.8
20260504203044 23 197 3.2 9.7 0.00 0.00 0.00 46 1009.8
20260504201532 23 277 3.2 11.3 0.00 0.00 0.00 53 1009.9
20260504200030 22 269 4.8 11.3 0.00 0.00 0.00 49 1010.0
20260504194538 22 15 1.6 9.7 0.00 0.00 0.00 50 1009.9
20260504193032 22 219 3.2 14.5 0.00 0.00 0.00 53 1010.1
20260504191538 22 290 4.8 14.5 0.00 0.00 0.00 56 1010.1
20260504190031 22 240 3.2 11.3 0.00 0.00 0.00 53 1010.3
20260504184534 21 112 1.6 12.9 0.00 0.00 0.00 52 1010.3
20260504183030 21 314 1.6 4.8 0.00 0.00 0.00 55 1010.4
20260504181529 20 223 3.2 14.5 0.00 0.00 0.00 60 1010.5
20260504180038 20 46 1.6 11.3 0.00 0.00 0.00 62 1010.4
20260504174530 19 269 1.6 9.7 0.00 0.00 0.00 62 1010.4
20260504173032 19 262 3.2 8.0 0.00 0.00 0.00 59 1010.5
20260504171533 18 314 1.6 6.4 0.00 0.00 0.00 61 1010.4